JAL2414 RJFK-RJOO

Flight info

Callsign JAL2414
Flight time 0h 51m
Altitude 27000
Route MIDAI M750 MADOG Y753 IZUMI
Aircraft B738/M-SDE2E3FGHIRWXY/LB1

Departure

Time 2026-04-27 13:21
Airport Kagoshima Airport (RJFK)

Arrival

Time 2026-04-27 14:13
Airport Osaka Itami International Airport (RJOO)
Time Latitude Longitude Altitude Speed Heading
2026-04-27 13:08 31.80037 130.71736 905 ft 0 kts 240°
2026-04-27 13:15 31.80045 130.71751 906 ft 4 kts 237°
2026-04-27 13:16 31.80060 130.71777 906 ft 4 kts 238°
2026-04-27 13:16 31.80074 130.71801 906 ft 4 kts 217°
2026-04-27 13:16 31.80094 130.71806 906 ft 4 kts 153°
2026-04-27 13:16 31.80113 130.71794 906 ft 0 kts 152°
2026-04-27 13:19 31.80110 130.71796 906 ft 2 kts 150°
2026-04-27 13:19 31.80086 130.71835 907 ft 12 kts 118°
2026-04-27 13:19 31.79994 130.71949 904 ft 27 kts 150°
2026-04-27 13:19 31.79795 130.72083 899 ft 36 kts 150°
2026-04-27 13:20 31.79581 130.72228 895 ft 35 kts 150°
2026-04-27 13:20 31.79377 130.72365 895 ft 33 kts 150°
2026-04-27 13:20 31.79187 130.72493 897 ft 30 kts 149°
2026-04-27 13:20 31.79160 130.72668 891 ft 27 kts 45°
2026-04-27 13:21 31.79329 130.72622 895 ft 29 kts 330°
2026-04-27 13:21 31.79733 130.72349 900 ft 105 kts 330°
2026-04-27 13:21 31.80559 130.71785 970 ft 162 kts 328°
2026-04-27 13:21 31.81556 130.71104 1775 ft 165 kts 329°
2026-04-27 13:22 31.82561 130.70530 2752 ft 162 kts 347°
2026-04-27 13:22 31.83716 130.70755 3229 ft 190 kts 34°
2026-04-27 13:22 31.84498 130.72129 3512 ft 222 kts 78°
2026-04-27 13:22 31.84447 130.74038 3871 ft 243 kts 97°
2026-04-27 13:23 31.84270 130.76072 4423 ft 261 kts 95°
2026-04-27 13:23 31.84136 130.78260 5122 ft 274 kts 94°
2026-04-27 13:23 31.83744 130.80462 5996 ft 279 kts 116°
2026-04-27 13:23 31.82576 130.82244 6864 ft 282 kts 142°
2026-04-27 13:24 31.80935 130.83543 7725 ft 286 kts 150°
2026-04-27 13:24 31.79211 130.84765 8574 ft 292 kts 152°
2026-04-27 13:24 31.77447 130.85999 9432 ft 298 kts 152°
2026-04-27 13:24 31.75702 130.87229 10229 ft 304 kts 152°
2026-04-27 13:25 31.73850 130.88544 10879 ft 315 kts 152°
2026-04-27 13:25 31.71959 130.89896 11638 ft 321 kts 152°
2026-04-27 13:25 31.70037 130.91278 12453 ft 326 kts 152°
2026-04-27 13:25 31.68091 130.92678 13259 ft 330 kts 153°
2026-04-27 13:26 31.66115 130.94100 14038 ft 335 kts 153°
2026-04-27 13:26 31.64122 130.95547 14773 ft 339 kts 150°
2026-04-27 13:26 31.62423 130.97538 15458 ft 355 kts 125°
2026-04-27 13:26 31.61503 131.00243 16161 ft 365 kts 100°
2026-04-27 13:27 31.61306 131.03201 16793 ft 373 kts 93°
2026-04-27 13:27 31.61245 131.06336 16952 ft 396 kts 91°
2026-04-27 13:27 31.61216 131.09658 17106 ft 417 kts 91°
2026-04-27 13:27 31.61177 131.13136 17243 ft 435 kts 91°
2026-04-27 13:28 31.61115 131.16737 17559 ft 447 kts 92°
2026-04-27 13:28 31.61178 131.20397 18137 ft 451 kts 83°
2026-04-27 13:28 31.61791 131.24046 18338 ft 463 kts 72°
2026-04-27 13:28 31.62989 131.27602 18443 ft 474 kts 61°
2026-04-27 13:29 31.64548 131.31038 18701 ft 480 kts 59°
2026-04-27 13:29 31.66145 131.34503 19078 ft 483 kts 59°
2026-04-27 13:29 31.67742 131.37989 19438 ft 485 kts 59°
2026-04-27 13:29 31.69291 131.41404 19815 ft 489 kts 60°
2026-04-27 13:30 31.70868 131.44908 20124 ft 493 kts 59°
2026-04-27 13:30 31.72467 131.48485 20474 ft 496 kts 60°
2026-04-27 13:30 31.74072 131.52081 20841 ft 499 kts 59°
2026-04-27 13:30 31.75770 131.55654 21190 ft 501 kts 57°
2026-04-27 13:31 31.77547 131.59196 21536 ft 504 kts 56°
2026-04-27 13:31 31.79362 131.62741 21852 ft 508 kts 56°
2026-04-27 13:31 31.81187 131.66303 22165 ft 511 kts 56°
2026-04-27 13:31 31.83021 131.69908 22492 ft 514 kts 56°
2026-04-27 13:32 31.84853 131.73543 22808 ft 517 kts 56°
2026-04-27 13:32 31.86682 131.77202 23118 ft 520 kts 57°
2026-04-27 13:32 31.88514 131.80886 23422 ft 523 kts 57°
2026-04-27 13:32 31.90351 131.84593 23698 ft 526 kts 57°
2026-04-27 13:33 31.92194 131.88320 23955 ft 528 kts 57°
2026-04-27 13:33 31.94041 131.92056 24239 ft 529 kts 57°
2026-04-27 13:33 31.95871 131.95761 24514 ft 530 kts 57°
2026-04-27 13:33 31.97730 131.99526 24775 ft 532 kts 57°
2026-04-27 13:34 31.99591 132.03297 25070 ft 533 kts 56°
2026-04-27 13:34 32.01451 132.07070 25435 ft 532 kts 56°
2026-04-27 13:34 32.03304 132.10834 25828 ft 530 kts 56°
2026-04-27 13:34 32.05101 132.14487 26229 ft 529 kts 56°
2026-04-27 13:35 32.06953 132.18255 26623 ft 528 kts 56°
2026-04-27 13:35 32.08793 132.22000 26974 ft 529 kts 56°
2026-04-27 13:35 32.10645 132.25771 26988 ft 533 kts 56°
2026-04-27 13:35 32.12377 132.29301 27009 ft 534 kts 56°
2026-04-27 13:36 32.14306 132.33241 27002 ft 532 kts 56°
2026-04-27 13:36 32.16151 132.37016 27001 ft 531 kts 56°
2026-04-27 13:36 32.17992 132.40784 26996 ft 530 kts 56°
2026-04-27 13:36 32.19742 132.44370 26995 ft 529 kts 56°
2026-04-27 13:37 32.21583 132.48146 26999 ft 529 kts 56°
2026-04-27 13:37 32.23418 132.51911 26997 ft 529 kts 56°
2026-04-27 13:37 32.25250 132.55675 26994 ft 529 kts 56°
2026-04-27 13:37 32.27084 132.59447 26998 ft 529 kts 56°
2026-04-27 13:38 32.28870 132.63123 26996 ft 530 kts 56°
2026-04-27 13:38 32.30703 132.66900 26992 ft 530 kts 56°
2026-04-27 13:38 32.32541 132.70690 26994 ft 531 kts 56°
2026-04-27 13:38 32.34375 132.74477 26990 ft 531 kts 56°
2026-04-27 13:39 32.36215 132.78281 26991 ft 532 kts 56°
2026-04-27 13:39 32.38059 132.82097 26991 ft 533 kts 56°
2026-04-27 13:39 32.39877 132.85863 26989 ft 533 kts 56°
2026-04-27 13:39 32.41721 132.89687 26986 ft 533 kts 56°
2026-04-27 13:40 32.43558 132.93499 26988 ft 534 kts 56°
2026-04-27 13:40 32.45397 132.97320 26987 ft 534 kts 56°
2026-04-27 13:40 32.47236 133.01147 26985 ft 535 kts 56°
2026-04-27 13:40 32.48454 133.03682 26985 ft 535 kts 56°
2026-04-27 13:41 32.50293 133.07513 26983 ft 535 kts 56°
2026-04-27 13:41 32.52130 133.11346 26984 ft 535 kts 56°
2026-04-27 13:41 32.53972 133.15192 26983 ft 535 kts 56°
2026-04-27 13:41 32.55811 133.19035 26982 ft 536 kts 56°
2026-04-27 13:42 32.57604 133.22787 26982 ft 536 kts 56°
2026-04-27 13:42 32.59440 133.26631 26978 ft 536 kts 56°
2026-04-27 13:42 32.61274 133.30478 26979 ft 536 kts 56°
2026-04-27 13:42 32.63104 133.34320 26978 ft 536 kts 56°
2026-04-27 13:43 32.64895 133.38082 26976 ft 536 kts 56°
2026-04-27 13:43 32.66729 133.41939 26973 ft 536 kts 56°
2026-04-27 13:43 32.68558 133.45791 26974 ft 536 kts 56°
2026-04-27 13:43 32.70387 133.49645 26972 ft 536 kts 56°
2026-04-27 13:44 32.72168 133.53403 26972 ft 536 kts 57°
2026-04-27 13:44 32.73995 133.57262 26971 ft 536 kts 57°
2026-04-27 13:44 32.75795 133.61068 26973 ft 536 kts 57°
2026-04-27 13:44 32.77616 133.64925 26972 ft 536 kts 57°
2026-04-27 13:45 32.79444 133.68797 26971 ft 536 kts 57°
2026-04-27 13:45 32.81266 133.72662 26971 ft 536 kts 57°
2026-04-27 13:45 32.83110 133.76533 26972 ft 535 kts 56°
2026-04-27 13:45 32.84986 133.80354 26969 ft 535 kts 55°
2026-04-27 13:46 32.86881 133.84158 26972 ft 535 kts 55°
2026-04-27 13:46 32.88787 133.87975 26970 ft 535 kts 55°
2026-04-27 13:46 32.90685 133.91790 26972 ft 536 kts 55°
2026-04-27 13:46 32.92552 133.95562 26971 ft 536 kts 55°
2026-04-27 13:47 32.94439 133.99392 26971 ft 536 kts 55°
2026-04-27 13:47 32.96430 134.03132 26963 ft 532 kts 49°
2026-04-27 13:47 32.98819 134.06452 26968 ft 524 kts 39°
2026-04-27 13:47 33.01417 134.09489 26978 ft 523 kts 38°
2026-04-27 13:48 33.04049 134.12491 26971 ft 523 kts 37°
2026-04-27 13:48 33.06678 134.15488 26973 ft 523 kts 37°
2026-04-27 13:48 33.09299 134.18506 26973 ft 524 kts 38°
2026-04-27 13:48 33.11908 134.21546 26979 ft 525 kts 38°
2026-04-27 13:49 33.14507 134.24604 26981 ft 525 kts 38°
2026-04-27 13:49 33.17103 134.27676 26981 ft 526 kts 38°
2026-04-27 13:49 33.19694 134.30751 26968 ft 526 kts 38°
2026-04-27 13:49 33.22292 134.33839 26985 ft 526 kts 38°
2026-04-27 13:50 33.24890 134.36926 26978 ft 526 kts 38°
2026-04-27 13:50 33.27487 134.40012 26987 ft 527 kts 38°
2026-04-27 13:50 33.30091 134.43108 26982 ft 527 kts 38°
2026-04-27 13:50 33.32691 134.46201 26988 ft 527 kts 38°
2026-04-27 13:51 33.35262 134.49261 26620 ft 531 kts 38°
2026-04-27 13:51 33.37896 134.52396 25648 ft 533 kts 38°
2026-04-27 13:51 33.40518 134.55524 24727 ft 532 kts 39°
2026-04-27 13:51 33.43114 134.58629 23981 ft 526 kts 39°
2026-04-27 13:52 33.45613 134.61621 23263 ft 519 kts 39°
2026-04-27 13:52 33.48159 134.64669 22472 ft 512 kts 39°
2026-04-27 13:52 33.50672 134.67678 21610 ft 507 kts 39°
2026-04-27 13:52 33.53141 134.70634 20944 ft 498 kts 39°
2026-04-27 13:53 33.57999 134.76440 19449 ft 487 kts 38°
2026-04-27 13:53 33.60537 134.79007 18998 ft 468 kts 30°
2026-04-27 13:53 33.63210 134.81031 18513 ft 455 kts 25°
2026-04-27 13:54 33.65942 134.82965 18074 ft 453 kts 24°
2026-04-27 13:54 33.68660 134.84891 17677 ft 454 kts 25°
2026-04-27 13:54 33.71374 134.86842 17295 ft 453 kts 25°
2026-04-27 13:54 33.74061 134.88803 16923 ft 450 kts 26°
2026-04-27 13:55 33.76724 134.90764 16566 ft 447 kts 26°
2026-04-27 13:55 33.79372 134.92718 16211 ft 444 kts 26°
2026-04-27 13:55 33.81997 134.94654 15863 ft 442 kts 26°
2026-04-27 13:55 33.84482 134.96490 15535 ft 440 kts 26°
2026-04-27 13:56 33.87084 134.98417 15186 ft 438 kts 27°
2026-04-27 13:56 33.89675 135.00340 14841 ft 437 kts 27°
2026-04-27 13:56 33.92223 135.02233 14501 ft 435 kts 27°
2026-04-27 13:56 33.94792 135.04143 14158 ft 433 kts 27°
2026-04-27 13:57 33.97351 135.06047 13813 ft 430 kts 27°
2026-04-27 13:57 33.99892 135.07938 13432 ft 428 kts 27°
2026-04-27 13:57 34.02409 135.09813 13078 ft 424 kts 28°
2026-04-27 13:57 34.04910 135.11677 12735 ft 420 kts 28°
2026-04-27 13:58 34.07384 135.13522 12399 ft 416 kts 28°
2026-04-27 13:58 34.09835 135.15351 12089 ft 413 kts 28°
2026-04-27 13:58 34.12271 135.17170 11750 ft 410 kts 28°
2026-04-27 13:58 34.14641 135.18944 11404 ft 391 kts 28°
2026-04-27 13:59 34.16888 135.20628 11086 ft 368 kts 28°
2026-04-27 13:59 34.19007 135.22214 10808 ft 348 kts 28°
2026-04-27 13:59 34.21020 135.23722 10535 ft 332 kts 29°
2026-04-27 13:59 34.22901 135.25155 10279 ft 317 kts 30°
2026-04-27 14:00 34.24700 135.26609 10047 ft 305 kts 31°
2026-04-27 14:00 34.26443 135.28043 9803 ft 300 kts 31°
2026-04-27 14:00 34.28164 135.29459 9536 ft 296 kts 31°
2026-04-27 14:00 34.29853 135.30846 9301 ft 291 kts 31°
2026-04-27 14:01 34.31518 135.32209 9072 ft 287 kts 31°
2026-04-27 14:01 34.33163 135.33555 8840 ft 284 kts 31°
2026-04-27 14:01 34.34790 135.34885 8616 ft 280 kts 31°
2026-04-27 14:01 34.36376 135.36181 8389 ft 277 kts 31°
2026-04-27 14:02 34.37969 135.37483 8175 ft 274 kts 31°
2026-04-27 14:02 34.39544 135.38770 7957 ft 272 kts 31°
2026-04-27 14:02 34.41112 135.40053 7730 ft 270 kts 31°
2026-04-27 14:02 34.42661 135.41320 7529 ft 268 kts 31°
2026-04-27 14:03 34.44133 135.42700 7287 ft 270 kts 47°
2026-04-27 14:03 34.45139 135.44621 7102 ft 270 kts 58°
2026-04-27 14:03 34.46043 135.46610 6895 ft 270 kts 58°
2026-04-27 14:03 34.46943 135.48599 6681 ft 269 kts 58°
2026-04-27 14:04 34.47846 135.50586 6455 ft 269 kts 58°
2026-04-27 14:04 34.48748 135.52564 6257 ft 268 kts 58°
2026-04-27 14:04 34.49653 135.54541 6011 ft 265 kts 58°
2026-04-27 14:04 34.50532 135.56459 5790 ft 255 kts 58°
2026-04-27 14:05 34.51380 135.58306 5583 ft 245 kts 58°
2026-04-27 14:05 34.52191 135.60075 5387 ft 236 kts 57°
2026-04-27 14:05 34.52965 135.61760 5223 ft 226 kts 57°
2026-04-27 14:05 34.53702 135.63370 5065 ft 211 kts 57°
2026-04-27 14:06 34.54520 135.64756 4879 ft 195 kts 32°
2026-04-27 14:06 34.55715 135.65351 4750 ft 182 kts
2026-04-27 14:06 34.56984 135.65439 4625 ft 185 kts 357°
2026-04-27 14:06 34.58286 135.65439 4463 ft 189 kts 357°
2026-04-27 14:07 34.59596 135.65405 4295 ft 187 kts 348°
2026-04-27 14:07 34.60697 135.64686 4174 ft 179 kts 317°
2026-04-27 14:07 34.61652 135.63779 4028 ft 173 kts 323°
2026-04-27 14:07 34.62605 135.62873 3995 ft 176 kts 317°
2026-04-27 14:08 34.63498 135.61875 3791 ft 174 kts 315°
2026-04-27 14:08 34.64345 135.60870 3565 ft 166 kts 314°
2026-04-27 14:08 34.65161 135.59883 3362 ft 163 kts 314°
2026-04-27 14:08 34.65951 135.58921 3140 ft 159 kts 313°
2026-04-27 14:09 34.66726 135.57976 2931 ft 158 kts 314°
2026-04-27 14:09 34.67508 135.57022 2728 ft 160 kts 314°
2026-04-27 14:09 34.68300 135.56056 2519 ft 159 kts 314°
2026-04-27 14:09 34.69058 135.55133 2300 ft 152 kts 314°
2026-04-27 14:10 34.69793 135.54236 2102 ft 150 kts 314°
2026-04-27 14:10 34.70540 135.53326 1897 ft 153 kts 314°
2026-04-27 14:10 34.71293 135.52409 1695 ft 154 kts 315°
2026-04-27 14:10 34.72037 135.51502 1479 ft 153 kts 315°
2026-04-27 14:11 34.72786 135.50588 1281 ft 152 kts 315°
2026-04-27 14:11 34.73534 135.49677 1075 ft 152 kts 315°
2026-04-27 14:11 34.74279 135.48770 875 ft 151 kts 315°
2026-04-27 14:11 34.75006 135.47871 675 ft 148 kts 312°
2026-04-27 14:12 34.75720 135.46973 494 ft 147 kts 313°
2026-04-27 14:12 34.76445 135.46099 307 ft 147 kts 310°
2026-04-27 14:12 34.77175 135.45223 113 ft 147 kts 309°
2026-04-27 14:12 34.77852 135.44414 46 ft 112 kts 316°
2026-04-27 14:13 34.78264 135.43922 50 ft 66 kts 315°
2026-04-27 14:13 34.78623 135.43692 46 ft 45 kts 355°
2026-04-27 14:13 34.78838 135.43822 47 ft 24 kts 13°
2026-04-27 14:13 34.78970 135.43724 48 ft 23 kts 314°
2026-04-27 14:14 34.79086 135.43598 48 ft 22 kts 336°
2026-04-27 14:14 34.79236 135.43569 47 ft 22 kts
2026-04-27 14:14 34.79321 135.43668 46 ft 1 kts 86°
2026-04-27 14:14 34.79316 135.43684 47 ft 3 kts 121°
2026-04-27 14:15 34.79286 135.43701 47 ft 4 kts 159°
2026-04-27 14:15 34.79274 135.43706 47 ft 1 kts 159°
2026-04-27 14:15 34.79269 135.43709 44 ft 0 kts 160°